TimeAKST,TemperatureF,Dew PointF,Humidity,Sea Level PressureIn,VisibilityMPH,Wind Direction,Wind SpeedMPH,Gust SpeedMPH,PrecipitationIn,Events,Conditions,WindDirDegrees,DateUTC
12:16 AM,28.4,26.6,93,29.33,3.0,Calm,Calm,-,N/A,,Overcast,0,2014-02-18 09:16:00
12:36 AM,28.4,26.6,93,29.33,3.0,Calm,Calm,-,N/A,,Overcast,0,2014-02-18 09:36:00
12:56 AM,28.4,28.4,100,29.33,10.0,Calm,Calm,-,N/A,,Mostly Cloudy,0,2014-02-18 09:56:00
1:16 AM,28.4,26.6,93,29.33,10.0,NNE,3.5,-,N/A,,Overcast,20,2014-02-18 10:16:00
1:36 AM,28.4,28.4,100,29.33,2.0,North,3.5,-,N/A,,Overcast,360,2014-02-18 10:36:00
1:56 AM,30.2,28.4,93,29.33,3.0,North,8.1,-,N/A,,Overcast,350,2014-02-18 10:56:00
2:16 AM,30.2,28.4,93,29.33,3.0,NW,6.9,-,N/A,,Overcast,320,2014-02-18 11:16:00
2:36 AM,30.2,28.4,93,29.33,9.0,NNW,6.9,-,N/A,,Overcast,330,2014-02-18 11:36:00
2:56 AM,30.2,28.4,93,29.33,10.0,NNW,6.9,-,N/A,,Overcast,340,2014-02-18 11:56:00
3:16 AM,28.4,26.6,93,29.33,10.0,North,5.8,-,N/A,,Overcast,350,2014-02-18 12:16:00
3:36 AM,28.4,26.6,93,29.33,10.0,North,8.1,-,N/A,,Mostly Cloudy,350,2014-02-18 12:36:00
3:56 AM,28.4,26.6,93,29.33,10.0,NNW,4.6,-,N/A,,Mostly Cloudy,340,2014-02-18 12:56:00
4:16 AM,28.4,26.6,93,29.33,10.0,NNW,4.6,-,N/A,,Mostly Cloudy,340,2014-02-18 13:16:00
4:36 AM,28.4,26.6,93,29.33,10.0,NW,4.6,-,N/A,,Mostly Cloudy,320,2014-02-18 13:36:00
4:56 AM,28.4,26.6,93,29.33,10.0,NNW,5.8,-,N/A,,Mostly Cloudy,330,2014-02-18 13:56:00
5:16 AM,28.4,26.6,93,29.33,10.0,NNW,3.5,-,N/A,,Mostly Cloudy,340,2014-02-18 14:16:00
5:36 AM,28.4,26.6,93,29.33,10.0,Calm,Calm,-,N/A,,Mostly Cloudy,0,2014-02-18 14:36:00
5:56 AM,26.6,26.6,100,29.33,10.0,Calm,Calm,-,N/A,,Overcast,0,2014-02-18 14:56:00
6:16 AM,28.4,26.6,93,29.33,10.0,NNW,3.5,-,N/A,,Overcast,330,2014-02-18 15:16:00
6:36 AM,28.4,26.6,93,29.33,10.0,NNW,5.8,-,N/A,,Mostly Cloudy,330,2014-02-18 15:36:00
6:56 AM,26.6,24.8,93,29.33,10.0,NNW,5.8,-,N/A,,Clear,340,2014-02-18 15:56:00
7:16 AM,26.6,24.8,93,29.33,10.0,NNW,4.6,-,N/A,,Clear,340,2014-02-18 16:16:00
7:36 AM,26.6,23.0,86,29.33,10.0,Calm,Calm,-,N/A,,Clear,0,2014-02-18 16:36:00
7:56 AM,26.6,24.8,93,29.32,10.0,Calm,Calm,-,N/A,,Mostly Cloudy,0,2014-02-18 16:56:00
8:16 AM,26.6,26.6,100,29.32,10.0,NNW,3.5,-,N/A,,Overcast,330,2014-02-18 17:16:00
8:36 AM,26.6,24.8,93,29.31,10.0,NNW,4.6,-,N/A,,Overcast,330,2014-02-18 17:36:00
8:56 AM,26.6,24.8,93,29.31,10.0,NNW,5.8,-,N/A,,Mostly Cloudy,330,2014-02-18 17:56:00
9:16 AM,26.6,24.8,93,29.31,10.0,NNW,5.8,-,N/A,,Scattered Clouds,330,2014-02-18 18:16:00
9:36 AM,26.6,24.8,93,29.30,10.0,NNW,4.6,-,N/A,,Mostly Cloudy,340,2014-02-18 18:36:00
9:56 AM,28.4,24.8,86,29.30,10.0,NNW,4.6,-,N/A,,Mostly Cloudy,330,2014-02-18 18:56:00
10:16 AM,28.4,24.8,86,29.30,10.0,NNW,3.5,-,N/A,,Mostly Cloudy,340,2014-02-18 19:16:00
10:36 AM,28.4,24.8,86,29.30,10.0,NNW,6.9,-,N/A,,Clear,340,2014-02-18 19:36:00
10:56 AM,30.2,24.8,80,29.29,10.0,NNW,8.1,-,N/A,,Clear,330,2014-02-18 19:56:00
11:16 AM,32.0,26.6,80,29.29,10.0,NNW,9.2,-,N/A,,Clear,330,2014-02-18 20:16:00
11:36 AM,33.8,26.6,75,29.28,10.0,NW,9.2,-,N/A,,Clear,320,2014-02-18 20:36:00
11:56 AM,33.8,24.8,70,29.28,10.0,NW,10.4,-,N/A,,Clear,320,2014-02-18 20:56:00
12:16 PM,33.8,26.6,75,29.27,10.0,NW,9.2,-,N/A,,Clear,320,2014-02-18 21:16:00
12:36 PM,33.8,26.6,75,29.27,10.0,NW,11.5,-,N/A,,Clear,320,2014-02-18 21:36:00
12:56 PM,33.8,24.8,70,29.26,10.0,NNW,11.5,-,N/A,,Clear,330,2014-02-18 21:56:00
1:16 PM,33.8,24.8,70,29.25,10.0,NNW,11.5,-,N/A,,Clear,330,2014-02-18 22:16:00
1:36 PM,33.8,24.8,70,29.25,10.0,NW,9.2,-,N/A,,Clear,320,2014-02-18 22:36:00
1:56 PM,33.8,23.0,65,29.25,10.0,NNW,10.4,-,N/A,,Clear,330,2014-02-18 22:56:00
2:16 PM,33.8,23.0,65,29.24,10.0,NNW,10.4,-,N/A,,Clear,330,2014-02-18 23:16:00
2:36 PM,35.6,24.8,65,29.25,10.0,NW,8.1,-,N/A,,Clear,320,2014-02-18 23:36:00
2:56 PM,35.6,24.8,65,29.25,10.0,NW,6.9,-,N/A,,Clear,320,2014-02-18 23:56:00
3:16 PM,33.8,23.0,65,29.25,10.0,NW,9.2,-,N/A,,Clear,320,2014-02-19 00:16:00
3:36 PM,33.8,21.2,60,29.25,10.0,NW,8.1,-,N/A,,Clear,320,2014-02-19 00:36:00
3:56 PM,33.8,23.0,65,29.26,10.0,NW,6.9,-,N/A,,Clear,310,2014-02-19 00:56:00
4:16 PM,33.8,24.8,70,29.26,10.0,NW,9.2,-,N/A,,Clear,320,2014-02-19 01:16:00
4:36 PM,33.8,24.8,70,29.26,10.0,NW,6.9,-,N/A,,Clear,320,2014-02-19 01:36:00
4:56 PM,33.8,24.8,70,29.27,10.0,NW,5.8,-,N/A,,Clear,320,2014-02-19 01:56:00
5:16 PM,30.2,24.8,80,29.28,10.0,NW,5.8,-,N/A,,Clear,310,2014-02-19 02:16:00
5:36 PM,30.2,23.0,75,29.28,10.0,NW,6.9,-,N/A,,Clear,310,2014-02-19 02:36:00
5:56 PM,30.2,24.8,80,29.29,10.0,NW,4.6,-,N/A,,Clear,320,2014-02-19 02:56:00
6:16 PM,28.4,23.0,80,29.30,10.0,NNW,5.8,-,N/A,,Clear,330,2014-02-19 03:16:00
6:36 PM,28.4,21.2,74,29.30,10.0,NNW,5.8,-,N/A,,Clear,340,2014-02-19 03:36:00
6:56 PM,28.4,21.2,74,29.31,10.0,NNW,5.8,-,N/A,,Clear,330,2014-02-19 03:56:00
7:16 PM,26.6,23.0,86,29.32,10.0,Calm,Calm,-,N/A,,Clear,0,2014-02-19 04:16:00
7:36 PM,24.8,21.2,86,29.32,10.0,Calm,Calm,-,N/A,,Clear,0,2014-02-19 04:36:00
7:56 PM,23.0,17.6,80,29.33,10.0,NNW,5.8,-,N/A,,Clear,330,2014-02-19 04:56:00
8:16 PM,26.6,23.0,86,29.34,10.0,NNW,6.9,-,N/A,,Clear,330,2014-02-19 05:16:00
8:36 PM,24.8,19.4,80,29.34,10.0,NNW,3.5,-,N/A,,Clear,340,2014-02-19 05:36:00
8:56 PM,21.2,15.8,80,29.34,7.0,NNW,4.6,-,N/A,,Clear,330,2014-02-19 05:56:00
9:16 PM,24.8,21.2,86,29.35,10.0,NNW,5.8,-,N/A,,Clear,330,2014-02-19 06:16:00
9:36 PM,23.0,21.2,93,29.35,10.0,NNW,4.6,-,N/A,,Clear,330,2014-02-19 06:36:00
9:56 PM,21.2,19.4,93,29.36,10.0,NNW,3.5,-,N/A,,Clear,330,2014-02-19 06:56:00
10:16 PM,21.2,19.4,93,29.37,10.0,NNE,4.6,-,N/A,,Clear,30,2014-02-19 07:16:00
10:36 PM,23.0,21.2,93,29.38,10.0,Calm,Calm,-,N/A,,Clear,0,2014-02-19 07:36:00
10:56 PM,19.4,17.6,93,29.38,10.0,North,-9999.0,-,N/A,,Clear,0,2014-02-19 07:56:00
11:16 PM,21.2,19.4,93,29.39,10.0,NNE,3.5,-,N/A,,Clear,30,2014-02-19 08:16:00
11:36 PM,19.4,14.0,80,29.40,10.0,Calm,Calm,-,N/A,,Clear,0,2014-02-19 08:36:00
11:56 PM,17.6,15.8,93,29.41,10.0,Calm,Calm,-,N/A,,Clear,0,2014-02-19 08:56:00